Weather History for Oxford, MS

Change the Weather History Date:

Tuesday, February 12, 2013

  Actual Average Record
Temperature  
Mean Temperature 7 °C -  
Max Temperature 9 °C 11 °C 23 °C (1950)
Min Temperature 4 °C -1 °C -16 °C (1981)
Degree Days  
Heating Degree Days 22    
Moisture  
Dew Point 3 °C    
Average Humidity 81    
Maximum Humidity 93    
Minimum Humidity 54    
Precipitation  
Precipitation 3.30 mm - - ()
Sea Level Pressure  
Sea Level Pressure 1016 hPa    
Wind  
Wind Speed 6 km/h (East)    
Max Wind Speed 21 km/h    
Max Gust Speed 32 km/h    
Visibility 12 kilometers    
Events Rain    
Averages and records for this station are not official NWS values.
T = Trace of Precipitation, MM = Missing Value Source: NWS Daily Summary

Daily Weather History Graph

Daily Weather History Graph

Search for Another Location

Airport:

Trip Planner

Search our weather history database for the weather conditions in past years. The results will help you decide how hot, cold, wet, or windy it might be!

Date:

Astronomy

Feb. 12, 2013 Rise Set
Actual Time 6:46 AM CST 5:39 PM CST
Civil Twilight 6:20 AM CST 6:04 PM CST
Nautical Twilight 5:50 AM CST 6:34 PM CST
Astronomical Twilight 5:21 AM CST 7:03 PM CST
Moon 7:52 AM CST (2/12) 8:29 PM CST (2/12)
Length of Visible Light 11h 44m
Length of Day
10h 53m
Waxing Crescent, 7% of the Moon is Illuminated
Feb 12
Waxing Crescent
Feb 17
First Quarter
Feb 25
Full
Mar 4
Last Quarter
Mar 11
New

Hourly Weather History & Observations

Time (CST) Temp. Windchill Dew Point Humidity Pressure Visibility Wind Dir Wind Speed Gust Speed Precip Events Conditions
12:15 AM 6.0 °C - 4.0 °C 87% 1021.2 hPa 16.1 km Calm Calm - N/A   Clear
12:35 AM 5.0 °C - 4.0 °C 93% 1021.2 hPa 14.5 km Calm Calm - N/A   Clear
12:55 AM 5.0 °C 3.9 °C 4.0 °C 93% 1021.6 hPa 16.1 km NNW 5.6 km/h / 1.5 m/s - N/A   Clear
1:15 AM 6.0 °C - 4.0 °C 87% 1021.6 hPa 16.1 km Calm Calm - N/A   Clear
1:35 AM 5.0 °C - 4.0 °C 93% 1021.2 hPa 16.1 km Calm Calm - N/A   Clear
1:55 AM 5.0 °C - 4.0 °C 93% 1021.2 hPa 16.1 km Calm Calm - N/A   Clear
2:15 AM 6.0 °C - 4.0 °C 87% 1021.2 hPa 16.1 km Calm Calm - N/A   Clear
2:55 AM 6.0 °C - 4.0 °C 87% 1021.6 hPa 16.1 km Calm Calm - N/A   Clear
3:15 AM 6.0 °C - 4.0 °C 87% 1021.2 hPa 16.1 km Calm Calm - N/A   Partly Cloudy
3:35 AM 5.0 °C - 4.0 °C 93% 1021.2 hPa 16.1 km Calm Calm - N/A   Partly Cloudy
3:55 AM 5.0 °C - 4.0 °C 93% 1020.9 hPa 16.1 km Calm Calm - N/A   Scattered Clouds
4:15 AM 5.0 °C 3.9 °C 4.0 °C 93% 1020.2 hPa 16.1 km East 5.6 km/h / 1.5 m/s - N/A   Partly Cloudy
4:55 AM 6.0 °C 4.5 °C 2.0 °C 76% 1019.2 hPa 16.1 km North 7.4 km/h / 2.1 m/s - N/A   Clear
5:15 AM 6.0 °C - 2.0 °C 76% 1019.5 hPa 16.1 km Calm Calm - N/A   Clear
5:35 AM 4.0 °C 2.8 °C 2.0 °C 87% 1019.2 hPa 16.1 km East 5.6 km/h / 1.5 m/s - N/A   Clear
5:55 AM 4.0 °C 0.9 °C 1.0 °C 81% 1018.5 hPa 16.1 km ENE 13.0 km/h / 3.6 m/s - N/A   Clear
6:15 AM 5.0 °C 2.8 °C 1.0 °C 76% 1018.5 hPa 16.1 km East 9.3 km/h / 2.6 m/s - N/A   Clear
6:35 AM 5.0 °C - 0.0 °C 70% 1019.2 hPa 16.1 km Calm Calm - N/A   Clear
6:55 AM 5.0 °C - 0.0 °C 70% 1019.9 hPa 12.9 km Calm Calm - N/A   Clear
7:15 AM 4.0 °C 2.8 °C 1.0 °C 81% 1019.2 hPa 16.1 km East 5.6 km/h / 1.5 m/s - N/A   Clear
7:55 AM 7.0 °C 4.9 °C 0.0 °C 61% 1017.8 hPa 14.5 km East 11.1 km/h / 3.1 m/s - N/A   Clear
8:15 AM 8.0 °C 5.3 °C 0.0 °C 57% 1017.8 hPa 14.5 km East 16.7 km/h / 4.6 m/s - N/A   Clear
8:55 AM 8.0 °C 6.4 °C 0.0 °C 57% 1017.8 hPa 14.5 km East 9.3 km/h / 2.6 m/s - N/A   Clear
9:15 AM 8.0 °C 6.1 °C 0.0 °C 57% 1018.5 hPa 14.5 km ESE 11.1 km/h / 3.1 m/s - N/A   Clear
9:35 AM 8.0 °C 6.4 °C 0.0 °C 57% 1018.8 hPa 12.9 km East 9.3 km/h / 2.6 m/s - N/A   Clear
9:55 AM 8.0 °C 6.4 °C 0.0 °C 57% 1019.2 hPa 14.5 km East 9.3 km/h / 2.6 m/s - N/A   Clear
10:15 AM 9.0 °C - 0.0 °C 54% 1016.8 hPa 14.5 km East 20.4 km/h / 5.7 m/s 27.8 km/h / 7.7 m/s N/A   Clear
10:35 AM 8.0 °C 5.3 °C 0.0 °C 57% 1018.5 hPa 14.5 km East 16.7 km/h / 4.6 m/s - N/A   Clear
10:55 AM 9.0 °C - 0.0 °C 54% 1017.5 hPa 16.1 km East 13.0 km/h / 3.6 m/s - N/A   Clear
11:15 AM 8.0 °C 5.8 °C 0.0 °C 57% 1017.5 hPa 14.5 km East 13.0 km/h / 3.6 m/s - N/A   Partly Cloudy
11:35 AM 7.0 °C 5.2 °C 2.0 °C 71% 1018.2 hPa 4.8 km East 9.3 km/h / 2.6 m/s - 0.5 mm Rain Rain
11:55 AM 8.0 °C 5.8 °C 3.0 °C 71% 1017.5 hPa 11.3 km ENE 13.0 km/h / 3.6 m/s - 1.0 mm Rain Light Rain
12:15 PM 8.0 °C 5.5 °C 4.0 °C 76% 1016.8 hPa 14.5 km East 14.8 km/h / 4.1 m/s - N/A   Partly Cloudy
12:35 PM 8.0 °C 7.3 °C 3.0 °C 71% 1017.2 hPa 14.5 km East 5.6 km/h / 1.5 m/s - N/A   Scattered Clouds
12:55 PM 8.0 °C 6.1 °C 2.0 °C 66% 1016.5 hPa 11.3 km East 11.1 km/h / 3.1 m/s - N/A Rain Light Rain
1:15 PM 7.0 °C 5.7 °C 2.0 °C 71% 1017.2 hPa 9.7 km East 7.4 km/h / 2.1 m/s - N/A Rain Light Rain
1:35 PM 7.0 °C 4.9 °C 3.0 °C 76% 1015.8 hPa 6.4 km ENE 11.1 km/h / 3.1 m/s - 0.5 mm Rain Light Rain
1:55 PM 7.0 °C 4.3 °C 4.0 °C 81% 1014.8 hPa 6.4 km East 14.8 km/h / 4.1 m/s - 1.0 mm Rain Light Rain
2:15 PM 6.0 °C 3.3 °C 4.0 °C 87% 1014.4 hPa 8.0 km ENE 13.0 km/h / 3.6 m/s - N/A Rain Light Rain
2:35 PM 6.0 °C 3.3 °C 4.0 °C 87% 1013.1 hPa 4.8 km East 13.0 km/h / 3.6 m/s 25.9 km/h / 7.2 m/s 0.8 mm Rain Light Rain
2:55 PM 6.0 °C 2.3 °C 4.0 °C 87% 1013.1 hPa 8.0 km ENE 20.4 km/h / 5.7 m/s - 1.0 mm Rain Light Rain
3:15 PM 6.0 °C 2.5 °C 4.0 °C 87% 1012.4 hPa 11.3 km ENE 18.5 km/h / 5.1 m/s 25.9 km/h / 7.2 m/s N/A   Scattered Clouds
3:35 PM 6.0 °C 2.3 °C 3.0 °C 81% 1012.8 hPa 4.8 km East 20.4 km/h / 5.7 m/s - 0.3 mm Rain Light Rain
3:55 PM 5.0 °C 1.5 °C 3.0 °C 87% 1012.4 hPa 11.3 km East 16.7 km/h / 4.6 m/s - 0.3 mm Rain Light Rain
4:15 PM 6.0 °C 4.0 °C 3.0 °C 81% 1012.8 hPa 11.3 km East 9.3 km/h / 2.6 m/s - N/A Rain Light Rain
4:35 PM 5.0 °C 1.8 °C 4.0 °C 93% 1012.1 hPa 6.4 km ENE 14.8 km/h / 4.1 m/s - N/A Rain Light Rain
4:55 PM 5.0 °C 2.8 °C 4.0 °C 93% 1012.8 hPa 14.5 km East 9.3 km/h / 2.6 m/s - N/A   Overcast
5:15 PM 5.0 °C 3.9 °C 4.0 °C 93% 1012.4 hPa 14.5 km ENE 5.6 km/h / 1.5 m/s - N/A   Overcast
5:35 PM 5.0 °C 3.9 °C 4.0 °C 93% 1012.4 hPa 14.5 km East 5.6 km/h / 1.5 m/s - N/A   Overcast
5:55 PM 5.0 °C 1.8 °C 3.0 °C 87% 1011.7 hPa 16.1 km East 14.8 km/h / 4.1 m/s - N/A   Overcast
6:15 PM 6.0 °C 3.7 °C 3.0 °C 81% 1011.7 hPa 16.1 km East 11.1 km/h / 3.1 m/s - N/A   Overcast
6:35 PM 6.0 °C 3.0 °C 3.0 °C 81% 1011.7 hPa 14.5 km ENE 14.8 km/h / 4.1 m/s - N/A Rain Light Rain
6:55 PM 6.0 °C 4.5 °C 3.0 °C 81% 1011.7 hPa 16.1 km East 7.4 km/h / 2.1 m/s - N/A   Overcast
7:15 PM 6.0 °C 3.7 °C 3.0 °C 81% 1011.7 hPa 11.3 km East 11.1 km/h / 3.1 m/s - N/A   Overcast
8:15 PM 5.0 °C 2.1 °C 3.0 °C 87% 1010.4 hPa 8.0 km East 13.0 km/h / 3.6 m/s - N/A Rain Light Rain
8:35 PM 5.0 °C 2.1 °C 3.0 °C 87% 1010.4 hPa 8.0 km East 13.0 km/h / 3.6 m/s 31.5 km/h / 8.7 m/s N/A   Overcast
8:55 PM 5.0 °C 2.1 °C 4.0 °C 93% 1010.0 hPa 8.0 km East 13.0 km/h / 3.6 m/s - N/A   Overcast
9:15 PM 5.0 °C 1.3 °C 4.0 °C 93% 1009.4 hPa 4.8 km East 18.5 km/h / 5.1 m/s 29.6 km/h / 8.2 m/s N/A Rain Light Rain
9:35 PM 5.0 °C 2.8 °C 4.0 °C 93% 1009.4 hPa 3.2 km ESE 9.3 km/h / 2.6 m/s 25.9 km/h / 7.2 m/s N/A Rain Light Rain
9:55 PM 5.0 °C 3.3 °C 4.0 °C 93% 1009.4 hPa 3.2 km SE 7.4 km/h / 2.1 m/s - N/A Rain Light Rain
10:15 PM 5.0 °C 2.1 °C 4.0 °C 93% 1009.4 hPa 3.2 km ESE 13.0 km/h / 3.6 m/s - N/A Rain Light Rain
10:55 PM 5.0 °C 3.9 °C 4.0 °C 93% 1009.4 hPa 4.0 km ESE 5.6 km/h / 1.5 m/s - N/A Rain Light Rain
11:15 PM 5.0 °C 3.9 °C 4.0 °C 93% 1009.4 hPa 4.0 km ESE 5.6 km/h / 1.5 m/s - N/A Rain Light Rain
11:35 PM 5.0 °C - 4.0 °C 93% 1009.4 hPa 6.4 km Calm Calm - N/A   Overcast
11:55 PM 5.0 °C - 4.0 °C 93% 1009.7 hPa 2.4 km Calm Calm - N/A Rain Light Rain